Weather in Gornorechensky

Russia / Primorsky Krai     44°15′46″N   135°06′47″E
temp.,
°C
wind,
m/s
gust,
m/s
humid.,
%
clouds,
%
prec.,
mm/h
press.,
hPa
HPBL,
m
14 august, sun
sun1401:00+13wnw11962 0.0 100711
04:00+13wnw119690 0.0 100611
07:00+14wnw11963 0.0 100618
10:00+21wnw127048 0.1 1005510
13:00+24w34490 0.8 10051588
16:00+25wnw444736 0.8 10041702
19:00+21nw2671100 0.0 1005177
22:00+15w1189100 0.0 100715
15 august, mon
mon1501:00+14wnw119497 0.0 100714
04:00+13wnw1197100 0.0 100512
07:00+14wnw1194100 0.0 100518
10:00+19n0073100 0.0 1004333
13:00+20ese2284100 0.6 1003441
16:00+19e238599 1.1 1002389
19:00+18e2487100 0.1 1001145
22:00+16e1197100 0.2 100211
16 august, tue
tue1601:00+15ene1199100 0.0 100118
04:00+15nnw119988 0.1 100125
07:00+16nw119696 0.0 100144
10:00+18ne1390100 0.3 1001272
13:00+19wnw1284100 0.5 1001377
16:00+19ssw1191100 3.1 1002216
19:00+19s119527 2.9 100426
22:00+15ssw119790 3.5 100613
17 august, wed
wed1701:00+14w11972 0.0 100710
04:00+13w11980 0.0 100810
07:00+14w11981 0.0 100923
10:00+21wnw13759 0.0 1009585
13:00+27wnw12460 0.0 10081719
16:00+27wnw22381 0.0 10072442
19:00+21se22830 0.3 100835
22:00+16sse00960 0.5 101011
18 august, thu
thu1801:00+15wnw11970 0.0 101011
04:00+15wnw11970 0.0 101010
07:00+15wnw11960 0.0 101111
10:00+22ese12730 0.0 1010444
13:00+27ese224814 0.1 10081976
16:00+24ese366395 0.1 1008332
19:00+21ese237865 0.0 1009138
22:00+15ese119784 0.0 101011